Date String (YYYY-MM-DD hh:mm:ss) UTC,Instrument flags,Ambient pressure (hPa),Sample flow (lpm),Bypass flow (lpm),Sample temperature (°C),Ambient temperature (°C),ASC tube jacket temperature (°C),LED temperature (°C),Box temperature (°C),Sample RH (%),Span deviation,Mass concentration (μg/m³),Mass concentration (μg/m³),Mass concentration (μg/m³)
DateTimeUTC,F1_M11,P_M11,Q1_M11,Q2_M11,T1_M11,T2_M11,T3_M11,T4_M11,T5_M11,U1_M11,ZSPAN_M11,X0_M11,X2_M11,X1_M11
2023-01-21 07:00:00,,0825.9,5.00,0.00,22.0,20.5,00.0,30.9,23.6,08.9,0000.0,0009.19,0006.33,0006.04
2023-01-21 07:01:00,,0825.9,5.00,0.00,22.1,21.4,00.0,30.9,23.8,08.9,0000.0,0009.32,0006.28,0005.98
2023-01-21 07:02:00,,0825.8,5.00,0.00,22.2,22.3,00.0,30.9,24.0,08.9,0000.0,0009.50,0006.26,0005.92
2023-01-21 07:03:00,,0825.8,4.99,0.00,22.3,22.6,00.0,30.9,24.2,08.8,0000.0,0009.47,0006.20,0005.84
2023-01-21 07:04:00,,0825.9,5.00,0.00,22.3,22.2,00.0,31.0,24.2,08.8,0000.0,0009.53,0006.14,0005.76
2023-01-21 07:05:00,,0825.9,5.01,0.00,22.3,21.6,00.0,31.0,24.0,08.8,0000.0,0009.47,0006.05,0005.67
2023-01-21 07:06:00,,0825.7,4.99,0.00,22.2,21.3,00.0,31.0,23.9,08.8,0000.0,0009.42,0005.97,0005.60
2023-01-21 07:07:00,,0825.7,4.99,0.00,22.2,21.1,00.0,31.0,23.9,08.8,0000.0,0009.34,0005.86,0005.51
2023-01-21 07:08:00,,0825.7,5.01,0.00,22.2,20.8,00.0,31.0,23.8,08.9,0000.0,0009.27,0005.80,0005.44
2023-01-21 07:09:00,,0825.7,5.01,0.00,22.1,20.6,00.0,31.0,23.7,08.9,0000.0,0009.47,0005.75,0005.40
2023-01-21 07:10:00,,0825.7,5.00,0.00,22.1,20.4,00.0,31.0,23.6,08.9,0000.0,0010.05,0005.74,0005.39
2023-01-21 07:11:00,,0825.6,4.99,0.00,22.0,20.4,00.0,31.0,23.5,08.9,0000.0,0009.99,0005.72,0005.38
2023-01-21 07:12:00,,0825.6,4.99,0.00,22.0,20.3,00.0,30.9,23.4,08.9,0000.0,0009.84,0005.71,0005.37
2023-01-21 07:13:00,,0825.6,5.02,0.00,22.0,21.0,00.0,30.9,23.7,08.9,0000.0,0009.77,0005.66,0005.35
2023-01-21 07:14:00,,0825.7,5.01,0.00,22.1,22.0,00.0,30.9,23.9,08.9,0000.0,0010.08,0005.58,0005.31
2023-01-21 07:15:00,,0825.7,5.00,0.00,22.2,22.8,00.0,30.9,24.2,08.8,0000.0,0009.98,0005.52,0005.27
2023-01-21 07:16:00,,0825.7,4.99,0.00,22.3,22.8,00.0,30.9,24.3,08.7,0000.0,0009.84,0005.45,0005.20
2023-01-21 07:17:00,,0825.6,4.98,0.00,22.3,22.2,00.0,31.0,24.2,08.7,0000.0,0009.73,0005.39,0005.14
2023-01-21 07:18:00,,0825.6,5.01,0.00,22.3,21.8,00.0,31.0,24.1,08.7,0000.0,0009.89,0005.38,0005.11
2023-01-21 07:19:00,,0825.6,5.00,0.00,22.2,21.3,00.0,31.0,23.9,08.7,0000.0,0009.91,0005.32,0005.06
2023-01-21 07:20:00,,0825.6,4.99,0.00,22.2,21.1,00.0,31.0,23.8,08.8,0000.0,0009.90,0005.26,0004.98
2023-01-21 07:21:00,,0825.6,5.00,0.00,22.2,20.9,00.0,31.0,23.7,08.8,0000.0,0009.24,0005.19,0004.90
2023-01-21 07:22:00,,0825.6,5.01,0.00,22.1,20.7,00.0,31.0,23.6,08.8,0000.0,0009.14,0005.12,0004.83
2023-01-21 07:23:00,,0825.6,5.00,0.00,22.1,20.6,00.0,31.0,23.5,08.9,0000.0,0009.74,0005.07,0004.78
2023-01-21 07:24:00,,0825.6,5.00,0.00,22.0,20.5,00.0,31.0,23.5,08.9,0000.0,0009.78,0005.06,0004.74
2023-01-21 07:25:00,,0825.6,4.99,0.00,22.0,20.4,00.0,30.9,23.5,09.0,0000.0,0009.03,0005.03,0004.70
2023-01-21 07:26:00,,0825.6,5.01,0.00,22.0,21.3,00.0,30.9,23.7,08.9,0000.0,0009.00,0004.98,0004.66
2023-01-21 07:27:00,,0825.6,5.00,0.00,22.1,22.2,00.0,30.9,24.0,08.9,0000.0,0008.99,0004.96,0004.64
2023-01-21 07:28:00,,0825.6,5.01,0.00,22.2,22.9,00.0,30.9,24.2,08.8,0000.0,0008.99,0004.97,0004.63
2023-01-21 07:29:00,,0825.6,4.99,0.00,22.3,22.7,00.0,30.9,24.2,08.8,0000.0,0008.92,0004.92,0004.59
2023-01-21 07:30:00,,0825.6,4.99,0.00,22.3,22.1,00.0,31.0,24.1,08.8,0000.0,0008.78,0004.89,0004.57
2023-01-21 07:31:00,,0825.6,5.01,0.00,22.3,21.7,00.0,31.0,24.0,08.8,0000.0,0008.61,0004.87,0004.57
2023-01-21 07:32:00,,0825.5,5.00,0.00,22.2,21.4,00.0,31.0,23.9,08.9,0000.0,0008.53,0004.85,0004.58
2023-01-21 07:33:00,,0825.6,4.99,0.00,22.2,21.1,00.0,31.0,23.8,08.9,0000.0,0008.35,0004.84,0004.57
2023-01-21 07:34:00,,0825.6,5.02,0.00,22.1,20.9,00.0,31.0,23.7,09.0,0000.0,0007.73,0004.82,0004.55
2023-01-21 07:35:00,,0825.6,5.01,0.00,22.1,20.7,00.0,31.0,23.6,09.0,0000.0,0007.41,0004.77,0004.54
2023-01-21 07:36:00,,0825.6,4.97,0.00,22.0,20.5,00.0,31.0,23.5,08.9,0000.0,0007.41,0004.79,0004.57
2023-01-21 07:37:00,,0825.5,5.00,0.00,22.0,20.4,00.0,30.9,23.5,08.9,0000.0,0007.37,0004.83,0004.61
2023-01-21 07:38:00,,0825.6,4.99,0.00,21.9,20.6,00.0,30.9,23.5,08.9,0000.0,0007.27,0004.83,0004.63
2023-01-21 07:39:00,,0825.6,5.01,0.00,22.0,21.5,00.0,30.9,23.7,08.8,0000.0,0007.27,0004.85,0004.66
2023-01-21 07:40:00,,0825.6,4.99,0.00,22.1,22.4,00.0,30.9,24.0,08.8,0000.0,0007.22,0004.89,0004.70
2023-01-21 07:41:00,,0825.6,4.99,0.00,22.2,23.0,00.0,30.9,24.2,08.7,0000.0,0007.09,0004.90,0004.72
2023-01-21 07:42:00,,0825.6,4.98,0.00,22.3,22.6,00.0,30.9,24.2,08.7,0000.0,0007.11,0004.91,0004.74
2023-01-21 07:43:00,,0825.6,5.02,0.00,22.3,22.0,00.0,31.0,24.1,08.7,0000.0,0007.17,0004.94,0004.76
2023-01-21 07:44:00,,0825.5,5.00,0.00,22.3,21.5,00.0,31.0,24.0,08.8,0000.0,0007.27,0004.98,0004.78
2023-01-21 07:45:00,,0825.6,5.00,0.00,22.2,21.1,00.0,31.0,23.9,08.8,0000.0,0007.40,0005.02,0004.80
2023-01-21 07:46:00,,0825.6,5.00,0.00,22.2,20.9,00.0,31.0,23.9,08.9,0000.0,0007.51,0005.05,0004.80
2023-01-21 07:47:00,,0825.6,5.01,0.00,22.2,20.8,00.0,31.0,23.8,08.9,0000.0,0007.48,0005.02,0004.77
2023-01-21 07:48:00,,0825.6,5.00,0.00,22.1,20.6,00.0,31.0,23.7,09.0,0000.0,0007.50,0005.00,0004.74
2023-01-21 07:49:00,,0825.6,4.99,0.00,22.1,20.5,00.0,31.0,23.7,09.0,0000.0,0007.57,0005.01,0004.72
2023-01-21 07:50:00,,0825.6,5.00,0.00,22.0,20.4,00.0,31.0,23.6,09.0,0000.0,0007.54,0004.98,0004.70
2023-01-21 07:51:00,,0825.6,5.01,0.00,22.0,20.3,00.0,30.9,23.5,09.0,0000.0,0007.52,0004.96,0004.67
2023-01-21 07:52:00,,0825.6,4.99,0.00,22.0,21.1,00.0,30.9,23.7,09.0,0000.0,0007.53,0004.98,0004.67
2023-01-21 07:53:00,,0825.6,5.00,0.00,22.1,22.1,00.0,30.9,24.0,09.0,0000.0,0007.63,0005.00,0004.68
2023-01-21 07:54:00,,0825.6,4.99,0.00,22.2,22.9,00.0,30.9,24.2,08.9,0000.0,0007.62,0005.00,0004.70
2023-01-21 07:55:00,,0825.5,4.99,0.00,22.3,22.8,00.0,30.9,24.3,08.8,0000.0,0007.68,0005.01,0004.71
2023-01-21 07:56:00,,0825.5,5.00,0.00,22.3,22.2,00.0,31.0,24.2,08.8,0000.0,0007.66,0005.01,0004.73
2023-01-21 07:57:00,,0825.6,5.01,0.00,22.3,21.7,00.0,31.0,24.1,08.8,0000.0,0007.61,0005.01,0004.76
2023-01-21 07:58:00,,0825.5,5.00,0.00,22.3,21.3,00.0,31.0,24.0,08.8,0000.0,0007.65,0005.06,0004.80
2023-01-21 07:59:00,,0825.5,5.01,0.00,22.2,21.0,00.0,31.0,23.9,08.8,0000.0,0009.30,0005.13,0004.86
